www.pogodaiklimat.ru

Погода и климат >> Архив погоды >> Индонезия >> Танджунгпинанг


ПОГОДА в Танджунгпинанге

  • Прогноз погоды в Танджунгпинанге
  • Монитор погоды в Танджунгпинанге

АРХИВ ПОГОДЫ в Танджунгпинанге

Время (UTC), дата Ветер
(напр.,м/с)
 
Видим.   Явления Облачность Т
(С)
Тd
(С)
f
(%)
Тe
(С)
Тes
(С)
Комфортность P
(гПа)
Po
(гПа)
Тmin
(С)
Tmax
(С)
R
(мм)
R24
(мм)
S
(см)
18 16.08 ЮВ 3 8000 м 3/1 500 м
[Cu hum Ci fib]
+27.0 +25.0 89 +39 +39 очень
душно
1012.3 1009.9
21 16.08 ЮВ 3 8000 м 6/3 500 м
[Cu hum Ac trans Ci fib]
+27.6 +25.1 86 +40 +40 очень
душно
1011.4 1009.0
00 17.08 Ю 2 10 км 10/4 400 м
[Cu hum As op]
+27.8 +24.4 82 +39 +39 очень
душно
1012.6 1010.2 +27.0
03 17.08 ЮВ 6 10 км 10/5 500 м
[Sc As op]
+30.3 +24.2 70 +42 +43 опасность
перегрева
1014.2 1011.8
06 17.08 ЮВ 6 10 км 6/4 500 м
[Cu med, cong As trans Ci fib]
+31.4 +24.0 65 +43 +47 опасность
перегрева
1011.5 1009.1
09 17.08 ЮВ 8 10 км 5/1 500 м
[Cu hum As trans Ci fib]
+30.6 +22.1 61 +40 +40 очень
душно
1010.5 1008.1
12 17.08 ЮВ 3 10 км 5/1 500 м
[Cu hum As trans Ci fib]
+27.9 +22.8 74 +37 +37 очень
душно
1011.2 1008.8 +32.8
15 17.08 ЮВ 2 10 км 5/1 500 м
[Cu hum As trans Ci fib]
+27.2 +23.6 81 +37 +37 очень
душно
1012.5 1010.1
18 17.08 ЮВ 4 10 км 5/1 500 м
[Cu hum As trans Ci fib]
+27.4 +23.7 80 +37 +37 очень
душно
1011.9 1009.5
21 17.08 ЮВ 3 10 км 5/1 500 м
[Cu hum As trans Ci fib]
+27.2 +23.7 81 +37 +37 очень
душно
1011.5 1009.1
00 18.08 ЮВ 3 10 км 6/1 500 м
[Cu hum Ac trans Ci fib]
+27.4 +24.0 82 +38 +39 очень
душно
1012.9 1010.5 +26.5
03 18.08 ЮВ 6 10 км 4/1 500 м
[Cu hum Ac trans Ci fib]
+30.4 +21.9 60 +39 +44 очень
душно
1013.5 1011.1
06 18.08 Ю 8 10 км 4/4 500 м
[Cu med, cong Ac trans Ci fib]
+31.8 +26.4 73 +48 +50 опасность
перегрева
1011.9 1009.6
09 18.08 ЮВ 6 10 км 6/6 500 м
[Cu med, cong Ac trans Ci fib]
+30.9 +22.2 60 +40 +41 очень
душно
1010.8 1008.4
12 18.08 ЮВ 2 10 км 6/4 500 м
[Cu med, cong Ac trans Ci fib]
+27.8 +23.2 76 +37 +37 очень
душно
1011.3 1008.9 +31.9
15 18.08 ЮВ 1 10 км 5/3 500 м
[Cu hum Ac trans Ci fib]
+26.5 +23.5 84 +36 +36 очень
душно
1013.3 1011.0
18 18.08 штиль 0 10 км 5/3 500 м
[Cu hum Ac trans Ci fib]
+25.0 +23.2 90 +33 +33 очень
душно
1012.8 1010.4
21 18.08 штиль 0 10 км 5/3 500 м
[Cu hum Ac trans Ci fib]
+24.8 +23.0 90 +33 +33 очень
душно
1012.5 1010.1
00 19.08 штиль 0 8000 м 9/3 500 м
[Cu hum Ac und Ci fib]
+25.5 +23.9 91 +35 +36 очень
душно
1012.9 1010.6 +24.8
03 19.08 Ю 5 10 км 6/4 500 м
[Cu hum Ac trans Ci fib]
+30.0 +22.9 66 +40 +44 очень
душно
1013.5 1011.1
06 19.08 Ю 5 10 км 6/4 500 м
[Cu hum Ac trans Ci fib]
+32.5 +22.2 55 +42 +47 опасность
перегрева
1011.5 1009.1
09 19.08 Ю 4 10 км 6/4 500 м
[Cu med, cong Ac trans Ci fib]
+30.4 +22.9 64 +40 +42 очень
душно
1009.8 1007.4
12 19.08 ЮВ 2 10 км 5/3 500 м
[Cu hum Ci fib]
+28.0 +24.0 79 +39 +39 очень
душно
1011.2 1008.9 +32.8
15 19.08 ЮВ 3 10 км 5/1 500 м
[Cu hum As trans Ci fib]
+26.6 +24.3 87 +37 +37 очень
душно
1012.5 1010.1
18 19.08 ЮВ 3 10 км 6/3 500 м
[Cu hum Ac As Ci fib]
+26.6 +24.9 90 +38 +38 очень
душно
1011.2 1008.8
21 19.08 ЮВ 4 10 км 8/3 500 м
[Cu med, cong Ac As Ci fib]
+26.5 +24.4 88 +37 +37 очень
душно
1010.5 1008.1
00 20.08 ЮВ 3 10 км 6/1 500 м
[Cu hum Ac trans Ci fib]
+26.8 +24.5 87 +38 +38 очень
душно
1011.5 1009.1 +25.4
03 20.08 ЮВ 6 10 км 8/5 500 м
[Cu med, cong Ac trans Ci fib]
+30.8 +24.0 67 +42 +45 опасность
перегрева
1012.2 1009.8
06 20.08 ЮВ 5 10 км 5/4 500 м
[Cu hum Ci fib]
+32.4 +22.9 57 +42 +48 опасность
перегрева
1010.5 1008.1
09 20.08 Ю 7 10 км 4/3 500 м
[Cu hum Ci fib]
+30.6 +22.1 61 +40 +41 очень
душно
1009.0 1006.6
12 20.08 ЮВ 6 10 км 4/3 500 м
[Cu hum Ac trans Ci fib]
+28.0 +23.2 75 +38 +38 очень
душно
1009.8 1007.4
15 20.08 ЮВ 3 10 км 4/3 500 м
[Cu hum Ci fib]
+27.4 +23.7 80 +37 +37 очень
душно
1010.8 1008.4
18 20.08 ЮВ 3 10 км 5/3 500 м
[Cu hum Ac trans Ci fib]
+27.0 +23.4 81 +37 +37 очень
душно
1010.5 1008.1
21 20.08 ЮВ 3 10 км 5/3 500 м
[Cu hum Ac trans Ci fib]
+26.6 +23.9 85 +37 +37 очень
душно
1009.8 1007.4
00 21.08 ЮВ 2 10 км 4/3 500 м
[Cu hum Ac trans Ci fib]
+27.0 +24.6 87 +38 +39 очень
душно
1011.2 1008.8 +26.5
03 21.08 ЮВ 6 10 км 5/3 500 м
[Cu hum Ci fib]
+31.4 +23.2 62 +42 +47 опасность
перегрева
1011.9 1009.5
06 21.08 Ю 6 10 км 5/4 500 м
[Cu med, cong Ci fib]
+31.8 +23.0 60 +42 +46 опасность
перегрева
1010.2 1007.8
09 21.08 Ю 6 10 км 5/4 500 м
[Cu med, cong Ci fib]
+30.6 +23.1 64 +41 +42 опасность
перегрева
1009.1 1006.7
12 21.08 ЮВ 3 10 км 5/1 500 м
[Cu hum Ac trans Ci fib]
+28.0 +24.6 82 +40 +40 очень
душно
1010.3 1007.9 +32.7
15 21.08 ЮВ 2 10 км 3/1 500 м
[Cu hum Ci fib]
+27.0 +25.0 89 +39 +39 очень
душно
1012.2 1009.8
18 21.08 штиль 0 8000 м 4/1 500 м
[Cu hum Ac trans Ci fib]
+25.6 +24.7 95 +36 +36 очень
душно
1011.9 1009.5
21 21.08 штиль 0 8000 м 4/1 500 м
[Cu hum Ac trans Ci fib]
+24.8 +24.2 96 +34 +34 очень
душно
1011.5 1009.1
00 22.08 штиль 0 10 км 9/3 500 м
[Cu med, cong As trans Cs]
+25.2 +24.0 93 +35 +35 очень
душно
1012.5 1010.2 +24.6
03 22.08 Ю 7 10 км 6/5 500 м
[Cu med, cong Ac trans Ci fib]
+30.6 +24.4 70 +43 +45 опасность
перегрева
1013.2 1010.8
06 22.08 Ю 7 10 км 6/5 500 м
[Cu med, cong Ci fib]
+32.7 +23.1 57 +43 +45 опасность
перегрева
1011.5 1009.1
09 22.08 ЮВ 6 10 км 6/5 500 м
[Cu med, cong Ac trans Ci fib]
+30.4 +24.5 71 +43 +44 опасность
перегрева
1009.5 1007.1
12 22.08 ЮВ 4 10 км 4/3 500 м
[Cu hum Ci fib]
+28.0 +23.7 77 +38 +38 очень
душно
1011.2 1008.8 +32.9
15 22.08 ЮВ 2 10 км 4/3 500 м
[Cu hum Ci fib]
+27.1 +23.9 83 +37 +37 очень
душно
1012.9 1010.5
18 22.08 ЮВ 2 10 км 4/3 500 м
[Cu hum Ci fib]
+26.5 +24.4 88 +37 +37 очень
душно
1011.9 1009.5
21 22.08 штиль 0 10 км 5/3 500 м
[Cu med, cong Ac lent Ci fib]
+26.4 +24.2 88 +37 +37 очень
душно
1011.5 1009.1
00 23.08 ЮВ 2 10 км 8/3 500 м
[Cu med, cong Ac trans Ci fib]
+27.0 +25.0 89 +39 +39 очень
душно
1012.9 1010.5 +25.2
03 23.08 ЮВ 6 10 км 9/5 500 м
[Cu med, cong Ac trans Ci fib]
+31.6 +21.3 54 +39 +41 очень
душно
1013.2 1010.8
06 23.08 Ю 9 10 км 6/4 500 м
[Cu hum Ac trans Ci fib]
+31.4 +22.1 58 +40 +41 очень
душно
1011.2 1008.9
09 23.08 ЮВ 5 10 км 6/4 500 м
[Cu hum Ac trans Ci fib]
+30.8 +22.7 62 +40 +42 очень
душно
1009.7 1007.3
12 23.08 ЮВ 3 10 км 5/3 500 м
[Cu hum Ac trans Ci fib]
+27.8 +22.9 75 +37 +37 очень
душно
1011.2 1008.8 +33.0

 

Местоположение метеостанции Танджунгпинанг (Индонезия): широта 0.92 долгота 104.53 высота над уровнем моря 18 м.

В архиве по умолчанию представлена погода в Танджунгпинанге за последнюю неделю. Архивные данные за месяц целиком и за предыдущие месяцы, начиная с января 2011 года, Вы можете получить, выбрав интересующий диапазон дат из раскрывающегося списка и нажав кнопку "Ввод!".


*Определитесь, кто Вы:
робот инопланетянин человек

Внимание! Время в таблицах - всемирное. Для получения местного времени необходимо прибавить поправку, которая равна 7 ч.

Смотрите также архив погоды в соседних городах и на ближайших метеорологических станциях:

Погода в Аэропорту Ханга Надима (Индонезия) (52 км)
Погода в Сингапуре (Сингапур) (79 км)
Погода в Аэропорту Сеная (Малайзия) (124 км)
Погода в Аэропорту Дабо (Индонезия) (156 км)
Погода в Аэропорту Япура (Индонезия) (283 км)
Погода в Малакке (Малайзия) (295 км)
Погода в Джамби (Индонезия) (300 км)
Погода в Таремпе (Индонезия) (318 км)
Погода в Пеканбару (Индонезия) (346 км)
Погода в Куантане (Малайзия) (350 км)

Пояснения к столбцам:

Ветер - указаны скорость ветра в м/с - средняя за 10 мин, порывы в срок и между сроками (в фигурных скобках) и направление, откуда дует ветер: С - северный, СВ - северо-восточный, В - восточный, ЮВ - юго-восточный, Ю - южный, ЮЗ - юго-западный, З - западный, СЗ - северо-западный.
Видимость - горизонтальная дальность видимости в метрах или километрах. При видимости от 1 до 10 км при отсутствии осадков обычно наблюдается дымка, при ухудшении видимости до 1 км и менее - туман. В сухую погоду видимость может ухудшаться дымом, пылью или мглою.
Явления - указаны атмосферные явления, наблюдавшиеся в срок или в последний час перед сроком; фигурными скобками обозначены явления, наблюдавшиеся между сроками (за 1-3 часа до срока); квадратными скобками обозначены град или гололедные отложения с указанием их диаметра в мм.
Облачность - указаны через наклонную черту общая и нижняя облачность в баллах и высота нижней границы облаков в метрах; квадратными скобками обозначены формы облаков: Ci - перистые, Cs - перисто-слоистые, Cc - перисто-кучевые, Ac - высококучевые, As - высокослоистые, Sc - слоисто-кучевые, Ns - слоисто-дождевые, Cu - кучевые, Cb - кучево-дождевые. Подробнее классификацию облаков см. в Атласе облаков (PDF).
T - Температура воздуха - температура, измеренная на высоте 2 м над землей.
Td - Температура точки росы - температура, при понижении до которой содержащийся в воздухе водяной пар достигнет насыщения.
f - Относительная влажность воздуха - влажноcть воздуха, измеренная на высоте 2 м над землей.
Te - Эффективная температура - температура, которую ощущает одетый по сезону человек в тени. Характеристика душности погоды. При расчете учитывается влияние влажности воздуха и скорости ветра на теплоощущения человека.
Tes - Эффективная температура на солнце - температура, которую ощущает человек, с поправкой на солнечный нагрев. Характеристика знойности погоды. Зависит от высоты солнца над горизонтом, облачности и скорости ветра. Ночью, в пасмурную погоду, а также при ветре 12 м/с и более поправка равна нулю.
P - Атмосферное давление - приведенное к уровню моря атмосферное давление.
Po - Атмосферное давление - измеренное на уровне метеостанции атмосферное давление.
Tmin - Минимальная температура - минимум температуры воздуха на высоте 2 м над землей.
Tmax - Максимальная температура - максимум температуры воздуха на высоте 2 м над землей.
R - Количество осадков - Количество выпавших осадков за период времени, мм. При наведении курсора мыши на число - период времени, за который выпало указанное количество осадков.
R24 - Количество осадков - Количество выпавших осадков за 24 часа, мм.
S - Снежный покров - Высота снежного покрова, см. При наведении курсора мыши на число - состояние снежного покрова и степень покрытия местности в баллах.